�N����,����,�~����,�C��,���x,�C��,����,���ϕ���,�ő�u�ԕ���,�ő厞����,���˗�,�I�_���x,�n�����x,�ő啗���N��,DTYPE
"23/03/29","00:10",0.0,6.6,67.9,1017.8,326.1,5.0,7.0,329.1,0.00,1.1,12.1,"00:01:12",1
"23/03/29","00:20",0.0,6.3,67.3,1017.8,326.0,4.4,5.5,325.8,0.00,0.7,12.0,"00:19:30",1
"23/03/29","00:30",0.0,6.3,67.2,1017.5,321.5,5.0,6.5,323.4,0.00,0.7,12.0,"00:22:38",1
"23/03/29","00:40",0.0,6.4,67.1,1017.5,325.5,4.6,6.6,328.7,0.00,0.8,11.8,"00:33:14",1
"23/03/29","00:50",0.0,5.8,68.7,1018.0,335.0,3.7,4.8,341.0,0.00,0.5,11.9,"00:47:12",1
"23/03/29","01:00",0.0,5.7,69.9,1017.8,334.8,4.0,5.7,339.0,0.00,0.7,11.9,"00:57:48",1
"23/03/29","01:10",0.0,5.6,70.9,1017.8,334.3,4.5,5.4,341.4,0.00,0.8,11.8,"01:04:22",1
"23/03/29","01:20",0.0,6.2,69.7,1017.8,327.6,5.6,7.3,324.4,0.00,1.1,11.6,"01:13:16",1
"23/03/29","01:30",0.0,6.2,69.6,1018.0,327.7,5.4,7.5,325.3,0.00,1.1,11.7,"01:24:00",1
"23/03/29","01:40",0.0,6.1,69.9,1018.0,333.8,5.0,6.7,322.9,0.00,1.1,11.7,"01:31:20",1
"23/03/29","01:50",0.0,5.8,70.8,1017.5,335.1,4.1,6.0,347.4,0.00,1.0,11.8,"01:41:36",1
"23/03/29","02:00",0.0,5.8,71.5,1017.8,330.4,4.6,7.4,326.6,0.00,1.1,11.6,"01:59:52",1
"23/03/29","02:10",0.0,5.9,71.6,1017.5,325.2,5.7,8.0,314.4,0.00,1.2,11.5,"02:07:28",1
"23/03/29","02:20",0.0,5.9,72.1,1017.8,329.3,5.6,8.8,340.3,0.00,1.3,11.5,"02:12:34",1
"23/03/29","02:30",0.0,5.8,72.5,1017.8,328.9,5.4,8.1,320.0,0.00,1.3,11.6,"02:23:18",1
"23/03/29","02:40",0.0,5.7,73.1,1017.8,330.2,5.0,7.1,328.4,0.00,1.3,11.4,"02:39:16",1
"23/03/29","02:50",0.0,5.6,73.7,1018.0,329.3,4.9,7.3,330.4,0.00,1.3,11.5,"02:41:34",1
"23/03/29","03:00",0.0,5.3,74.4,1017.8,332.4,4.2,5.1,324.2,0.00,1.2,11.6,"02:59:20",1
"23/03/29","03:10",0.0,5.4,75.1,1017.3,332.2,5.0,5.9,311.1,0.00,1.4,11.3,"03:02:44",1
"23/03/29","03:20",0.0,5.4,75.8,1017.5,333.4,4.5,6.3,338.3,0.00,1.5,11.1,"03:13:30",1
"23/03/29","03:30",0.0,5.3,76.6,1017.5,328.2,4.6,6.0,308.1,0.00,1.6,11.1,"03:23:26",1
"23/03/29","03:40",0.0,5.3,77.3,1017.1,330.2,4.1,5.1,337.1,0.00,1.7,11.3,"03:39:48",1
"23/03/29","03:50",0.0,5.2,78.1,1017.3,326.3,5.2,6.5,314.5,0.00,1.7,11.3,"03:43:50",1
"23/03/29","04:00",0.0,5.2,78.6,1017.3,326.2,5.5,6.8,302.7,0.00,1.8,11.3,"03:56:20",1
"23/03/29","04:10",0.0,5.1,79.0,1017.1,329.0,4.9,7.7,319.0,0.00,1.8,11.0,"04:03:46",1
"23/03/29","04:20",0.0,5.2,79.4,1017.3,328.6,5.0,6.7,322.7,0.00,2.0,11.1,"04:12:24",1
"23/03/29","04:30",0.0,5.0,79.8,1017.5,334.8,4.9,7.2,329.4,0.00,1.8,10.9,"04:29:46",1
"23/03/29","04:40",0.0,5.2,80.2,1017.5,330.9,4.9,6.6,324.9,0.00,2.1,11.1,"04:33:48",1
"23/03/29","04:50",0.0,5.0,80.5,1017.3,328.6,5.2,6.2,303.6,0.00,2.0,10.9,"04:42:00",1
"23/03/29","05:00",0.0,5.1,80.9,1017.3,318.0,5.7,7.3,295.7,0.00,2.1,10.9,"04:56:32",1
"23/03/29","05:10",0.0,5.1,81.1,1017.3,324.0,6.0,7.2,328.2,0.00,2.2,10.8,"05:08:20",1
"23/03/29","05:20",0.0,4.9,81.4,1017.5,332.1,5.7,8.0,327.6,0.00,2.0,10.8,"05:17:00",1
"23/03/29","05:30",0.0,4.8,81.8,1017.8,316.5,5.9,8.1,327.2,0.00,2.0,10.8,"05:20:22",1
"23/03/29","05:40",0.0,4.7,82.2,1017.5,316.2,5.5,7.5,316.7,0.00,2.0,11.0,"05:30:12",1
"23/03/29","05:50",0.0,4.7,82.6,1017.5,337.8,3.7,6.7,320.9,0.00,2.0,10.8,"05:40:14",1
"23/03/29","06:00",0.0,4.4,83.1,1017.8,325.5,3.0,4.3,316.3,0.00,1.8,10.6,"05:55:04",1
"23/03/29","06:10",0.0,4.2,83.9,1017.3,331.4,3.2,4.3,350.6,0.00,1.8,10.6,"06:09:18",1
"23/03/29","06:20",0.0,4.1,84.7,1017.5,331.0,3.4,4.5,330.7,0.00,1.8,10.7,"06:10:20",1
"23/03/29","06:30",0.0,4.3,85.1,1017.1,323.5,3.6,5.0,333.9,0.00,2.1,10.6,"06:21:46",1
"23/03/29","06:40",0.0,4.2,85.5,1017.8,333.0,3.1,5.1,335.1,0.00,2.0,10.6,"06:38:40",1
"23/03/29","06:50",0.0,4.2,86.0,1017.5,331.4,3.9,5.9,346.0,0.00,2.1,10.7,"06:40:22",1
"23/03/29","07:00",0.0,4.3,86.3,1017.5,326.3,3.7,6.7,330.6,0.00,2.3,10.6,"06:57:36",1
"23/03/29","07:10",0.0,4.6,86.2,1017.8,325.7,5.1,6.5,323.9,0.00,2.5,10.5,"07:02:38",1
"23/03/29","07:20",0.0,4.8,86.0,1017.8,334.3,4.4,6.6,324.7,0.01,2.7,10.4,"07:11:06",1
"23/03/29","07:30",0.0,5.1,85.7,1018.2,331.2,3.2,5.1,351.7,0.02,2.9,10.4,"07:20:30",1
"23/03/29","07:40",0.0,5.5,85.2,1018.5,329.8,2.5,3.9,345.8,0.04,3.3,10.3,"07:31:04",1
"23/03/29","07:50",0.0,6.0,84.4,1018.5,330.8,3.1,5.4,342.9,0.06,3.6,10.4,"07:46:56",1
"23/03/29","08:00",0.0,6.5,83.0,1018.7,336.6,2.8,5.1,308.2,0.08,3.9,10.4,"07:51:04",1
"23/03/29","08:10",0.0,6.9,81.4,1019.0,333.8,3.1,5.5,340.2,0.11,4.0,10.3,"08:00:02",1
"23/03/29","08:20",0.0,7.6,80.0,1018.7,332.7,2.8,5.1,343.0,0.14,4.4,10.1,"08:14:32",1
"23/03/29","08:30",0.0,8.0,77.6,1018.5,322.2,3.2,4.5,324.4,0.17,4.4,10.4,"08:22:44",1
"23/03/29","08:40",0.0,8.5,75.1,1019.2,323.1,3.0,4.7,349.6,0.19,4.4,10.6,"08:33:28",1
"23/03/29","08:50",0.0,9.2,73.3,1018.7,308.4,2.0,3.3,331.2,0.22,4.7,10.5,"08:45:36",1
"23/03/29","09:00",0.0,9.6,71.4,1019.2,330.9,2.6,4.0,345.2,0.25,4.7,10.3,"08:53:56",1
"23/03/29","09:10",0.0,10.2,70.7,1019.2,329.7,2.3,4.3,350.3,0.28,5.2,10.5,"09:05:00",1
"23/03/29","09:20",0.0,10.6,69.2,1019.2,339.2,2.2,4.4,337.9,0.31,5.2,10.4,"09:16:08",1
"23/03/29","09:30",0.0,11.6,67.4,1019.4,334.1,1.3,3.1,318.5,0.34,5.8,10.6,"09:22:34",1
"23/03/29","09:40",0.0,12.4,64.7,1019.4,236.0,0.8,2.1,344.1,0.36,6.0,10.6,"09:30:32",1
"23/03/29","09:50",0.0,12.8,62.8,1019.0,147.8,0.7,1.6,197.1,0.39,5.9,10.5,"09:48:48",1
"23/03/29","10:00",0.0,13.1,61.4,1019.0,210.5,1.0,1.9,221.9,0.41,5.9,10.5,"09:50:48",1
"23/03/29","10:10",0.0,13.5,58.4,1019.0,138.3,1.1,2.5,118.4,0.44,5.5,10.7,"10:09:04",1
"23/03/29","10:20",0.0,13.6,57.8,1019.2,174.7,1.2,2.9,226.6,0.46,5.5,10.7,"10:14:24",1
"23/03/29","10:30",0.0,13.7,54.3,1019.0,91.7,1.0,1.7,39.6,0.47,4.7,10.7,"10:24:40",1
"23/03/29","10:40",0.0,14.0,53.0,1018.7,158.7,1.5,2.9,121.7,0.50,4.6,10.8,"10:38:40",1
"23/03/29","10:50",0.0,14.6,53.1,1018.5,186.1,1.6,3.4,163.5,0.51,5.2,11.1,"10:43:52",1
"23/03/29","11:00",0.0,15.0,51.2,1018.5,174.0,1.1,2.7,117.7,0.53,5.1,10.9,"10:56:40",1
"23/03/29","11:10",0.0,15.4,50.1,1018.0,210.2,1.5,3.3,129.4,0.54,5.1,11.1,"11:09:20",1
"23/03/29","11:20",0.0,15.7,48.1,1018.0,196.8,1.3,2.8,132.4,0.55,4.8,11.4,"11:14:08",1
"23/03/29","11:30",0.0,15.9,47.0,1017.5,129.5,1.3,2.9,118.3,0.57,4.7,11.3,"11:29:44",1
"23/03/29","11:40",0.0,15.9,46.2,1017.5,146.2,2.0,4.2,126.6,0.58,4.4,11.4,"11:36:40",1
"23/03/29","11:50",0.0,15.9,45.7,1017.1,122.8,2.0,3.3,117.0,0.58,4.3,11.5,"11:47:44",1
"23/03/29","12:00",0.0,16.8,43.4,1017.1,171.9,1.3,2.9,176.9,0.59,4.3,11.6,"11:50:56",1
"23/03/29","12:10",0.0,16.7,44.2,1016.8,160.0,2.1,4.3,208.6,0.60,4.5,11.7,"12:09:36",1
"23/03/29","12:20",0.0,16.8,42.2,1016.6,173.4,1.8,4.0,126.5,0.59,3.9,11.8,"12:14:56",1
"23/03/29","12:30",0.0,17.1,43.2,1016.4,180.1,2.0,4.7,140.2,0.59,4.5,12.0,"12:25:52",1
"23/03/29","12:40",0.0,17.5,42.3,1016.1,197.9,2.0,4.7,144.5,0.60,4.6,11.9,"12:30:56",1
"23/03/29","12:50",0.0,17.6,40.6,1015.9,160.4,2.0,5.6,123.5,0.60,4.1,12.0,"12:42:24",1
"23/03/29","13:00",0.0,17.6,40.4,1015.9,159.3,2.6,4.9,127.0,0.59,4.0,12.2,"12:51:44",1
"23/03/29","13:10",0.0,18.0,40.8,1015.6,167.4,2.1,4.0,146.5,0.59,4.5,12.4,"13:02:32",1
"23/03/29","13:20",0.0,18.3,38.6,1015.6,179.9,1.6,3.6,163.0,0.59,4.0,12.4,"13:18:16",1
"23/03/29","13:30",0.0,18.3,36.5,1015.2,192.2,2.2,4.1,132.8,0.58,3.2,12.5,"13:25:36",1
"23/03/29","13:40",0.0,18.4,33.6,1014.9,233.2,2.6,4.8,234.0,0.57,2.1,12.6,"13:36:40",1
"23/03/29","13:50",0.0,19.2,32.7,1014.7,243.1,1.5,3.4,237.2,0.57,2.5,12.8,"13:41:36",1
"23/03/29","14:00",0.0,18.5,28.1,1014.7,327.2,3.9,8.0,336.3,0.56,-0.2,13.0,"13:58:32",1
"23/03/29","14:10",0.0,18.8,29.5,1014.7,339.3,3.1,6.0,339.1,0.55,0.7,13.1,"14:00:08",1
"23/03/29","14:20",0.0,19.1,31.4,1014.2,341.1,3.0,7.9,324.1,0.53,1.8,13.2,"14:12:56",1
"23/03/29","14:30",0.0,18.9,28.5,1014.7,355.7,2.7,6.2,349.3,0.52,0.3,13.0,"14:20:32",1
"23/03/29","14:40",0.0,19.1,30.0,1014.0,52.2,2.0,6.3,335.4,0.51,1.2,13.3,"14:39:04",1
"23/03/29","14:50",0.0,19.0,28.9,1014.2,340.4,3.2,6.3,299.9,0.49,0.6,13.1,"14:43:36",1
"23/03/29","15:00",0.0,18.9,29.3,1014.2,349.5,3.5,6.8,342.3,0.47,0.7,13.5,"14:52:24",1
"23/03/29","15:10",0.0,18.6,29.6,1014.2,346.7,3.2,7.8,349.7,0.45,0.6,13.4,"15:09:52",1
"23/03/29","15:20",0.0,18.5,29.7,1014.5,347.8,3.6,6.5,351.2,0.43,0.5,13.4,"15:16:00",1
"23/03/29","15:30",0.0,18.6,29.5,1014.2,349.2,3.4,7.4,322.2,0.41,0.5,13.5,"15:23:20",1
"23/03/29","15:40",0.0,18.8,30.8,1014.2,354.3,3.0,5.7,349.5,0.39,1.3,13.5,"15:32:08",1
"23/03/29","15:50",0.0,18.5,30.9,1014.2,347.8,3.9,8.9,348.8,0.37,1.1,13.7,"15:44:16",1
"23/03/29","16:00",0.0,18.4,31.3,1014.5,342.4,4.2,7.8,352.4,0.35,1.2,13.7,"15:56:40",1
"23/03/29","16:10",0.0,18.1,31.5,1014.5,346.3,3.9,8.5,330.6,0.31,1.0,13.4,"16:06:40",1
"23/03/29","16:20",0.0,17.7,31.2,1014.5,349.4,4.0,6.0,334.9,0.25,0.5,13.9,"16:14:40",1
"23/03/29","16:30",0.0,17.7,31.4,1014.5,343.1,4.0,7.7,326.4,0.24,0.6,13.7,"16:28:24",1
"23/03/29","16:40",0.0,17.3,31.1,1014.5,342.5,4.6,9.7,308.8,0.23,0.1,13.7,"16:37:04",1
"23/03/29","16:50",0.0,17.0,30.4,1014.7,345.9,4.4,9.1,338.9,0.17,-0.5,13.8,"16:48:56",1
"23/03/29","17:00",0.0,16.3,30.7,1014.7,348.6,3.7,7.3,340.0,0.10,-0.9,13.7,"16:57:12",1
"23/03/29","17:10",0.0,16.1,29.8,1015.2,345.2,4.0,8.0,350.4,0.10,-1.5,13.8,"17:04:16",1
"23/03/29","17:20",0.0,16.3,31.0,1014.7,347.3,3.4,5.6,336.6,0.11,-0.8,13.8,"17:10:48",1
"23/03/29","17:30",0.0,16.3,30.7,1014.9,341.5,3.6,6.4,347.2,0.11,-0.9,13.7,"17:23:20",1
"23/03/29","17:40",0.0,15.9,31.2,1014.7,340.3,4.1,6.6,337.0,0.07,-1.1,13.8,"17:30:16",1
"23/03/29","17:50",0.0,15.8,29.5,1014.9,340.7,4.1,8.0,335.5,0.07,-1.9,13.7,"17:43:08",1
"23/03/29","18:00",0.0,15.3,28.8,1015.4,351.4,2.8,6.6,332.1,0.03,-2.7,13.7,"17:57:08",1
"23/03/29","18:10",0.0,15.0,30.3,1015.4,345.1,2.2,4.2,336.5,0.02,-2.2,13.7,"18:00:50",1
"23/03/29","18:20",0.0,14.6,29.0,1015.4,349.5,2.6,4.1,343.8,0.01,-3.2,13.7,"18:15:48",1
"23/03/29","18:30",0.0,14.1,29.6,1015.4,349.2,2.1,4.0,357.8,0.00,-3.3,13.7,"18:28:02",1
"23/03/29","18:40",0.0,13.8,31.0,1015.6,342.1,2.2,3.4,347.6,0.00,-3.0,13.5,"18:30:24",1
"23/03/29","18:50",0.0,13.6,29.6,1015.9,346.9,2.3,4.3,336.3,0.00,-3.8,13.6,"18:40:16",1
"23/03/29","19:00",0.0,13.2,32.8,1015.9,342.7,2.0,4.1,347.8,0.00,-2.8,13.6,"18:58:44",1
"23/03/29","19:10",0.0,12.6,35.6,1015.9,334.5,2.3,3.2,333.7,0.00,-2.2,13.6,"19:04:38",1
"23/03/29","19:20",0.0,12.2,35.3,1016.1,335.6,2.8,4.0,347.0,0.00,-2.6,13.6,"19:17:58",1
"23/03/29","19:30",0.0,12.1,36.5,1015.9,336.2,2.7,3.6,344.7,0.00,-2.3,13.5,"19:22:40",1
"23/03/29","19:40",0.0,11.6,40.5,1015.9,332.7,3.0,3.3,335.2,0.00,-1.3,13.4,"19:38:30",1
"23/03/29","19:50",0.0,11.0,44.1,1015.9,331.6,3.4,4.1,313.7,0.00,-0.7,13.2,"19:41:16",1
"23/03/29","20:00",0.0,10.7,45.0,1015.9,330.8,3.7,5.7,313.9,0.00,-0.7,13.3,"19:50:02",1
"23/03/29","20:10",0.0,10.9,42.3,1016.1,329.5,4.5,6.0,316.9,0.00,-1.4,13.2,"20:01:14",1
"23/03/29","20:20",0.0,10.9,41.0,1016.1,322.5,3.2,4.2,346.2,0.00,-1.8,13.3,"20:14:56",1
"23/03/29","20:30",0.0,11.1,41.1,1016.4,323.0,4.0,5.9,309.5,0.00,-1.6,13.1,"20:20:52",1
"23/03/29","20:40",0.0,11.0,39.9,1016.4,315.5,2.8,5.7,320.3,0.00,-2.1,13.2,"20:32:22",1
"23/03/29","20:50",0.0,10.9,41.1,1016.4,321.6,2.2,4.3,344.4,0.00,-1.8,12.9,"20:45:24",1
"23/03/29","21:00",0.0,10.8,41.4,1016.4,320.1,1.2,2.2,304.5,0.00,-1.7,13.1,"20:50:28",1
"23/03/29","21:10",0.0,10.7,42.3,1016.6,308.9,2.1,3.4,296.0,0.00,-1.5,13.2,"21:05:44",1
"23/03/29","21:20",0.0,10.9,41.4,1016.6,327.2,3.0,4.8,314.1,0.00,-1.7,12.9,"21:10:52",1
"23/03/29","21:30",0.0,10.8,39.7,1016.8,332.0,2.5,4.5,335.4,0.00,-2.3,12.9,"21:23:02",1
"23/03/29","21:40",0.0,10.8,40.1,1016.8,328.1,2.0,3.2,313.2,0.00,-2.2,12.9,"21:31:24",1
"23/03/29","21:50",0.0,10.2,45.5,1016.8,317.6,0.8,2.4,340.2,0.00,-1.0,12.9,"21:40:16",1
"23/03/29","22:00",0.0,9.6,48.1,1016.6,341.6,0.7,1.8,344.4,0.00,-0.8,13.0,"21:50:56",1
"23/03/29","22:10",0.0,9.3,50.5,1016.6,314.3,1.7,3.3,340.5,0.00,-0.4,12.9,"22:05:22",1
"23/03/29","22:20",0.0,8.8,51.3,1016.6,323.8,2.5,3.6,308.6,0.00,-0.7,12.8,"22:13:04",1
"23/03/29","22:30",0.0,9.3,49.8,1016.4,329.2,3.0,4.9,324.4,0.00,-0.6,12.7,"22:20:48",1
"23/03/29","22:40",0.0,8.8,51.6,1016.6,280.9,1.7,2.1,262.3,0.00,-0.6,12.6,"22:36:32",1
"23/03/29","22:50",0.0,8.3,53.5,1016.6,291.2,1.6,2.2,317.0,0.00,-0.5,12.5,"22:42:16",1
"23/03/29","23:00",0.0,7.7,55.3,1016.4,287.3,1.5,2.4,255.5,0.00,-0.6,12.8,"22:50:24",1
"23/03/29","23:10",0.0,7.6,59.5,1015.9,327.5,2.5,3.3,333.2,0.00,0.3,12.6,"23:04:16",1
"23/03/29","23:20",0.0,7.5,61.3,1016.4,308.6,3.5,4.9,316.9,0.00,0.6,12.5,"23:17:04",1
"23/03/29","23:30",0.0,7.5,61.8,1016.1,306.3,4.0,5.8,322.7,0.00,0.7,12.5,"23:28:48",1
"23/03/29","23:40",0.0,7.2,63.3,1016.1,326.5,3.5,5.1,320.4,0.00,0.7,12.4,"23:30:16",1
"23/03/29","23:50",0.0,6.9,64.6,1016.4,302.5,2.3,3.2,322.2,0.00,0.7,12.4,"23:40:48",1
"23/03/29","24:00",0.0,6.7,65.7,1016.4,320.7,2.5,3.7,334.1,0.00,0.8,12.3,"23:58:48",1
